Weather in Staryy Biser

Russia / Perm Krai     58°24′44″N   58°53′07″E
temp.,
°C
wind,
m/s
gust,
m/s
humid.,
%
clouds,
%
prec.,
mm/h
press.,
hPa
HPBL,
m
1 march, mon
mon123:00−20ene51195100 0.4 1016418
02:00−21ene4996100 0.1 1017300
05:00−22ne389896 0.1 1018235
08:00−25ne2210098 0.0 101927
11:00−18ene129183 0.0 1019224
14:00−12sse118588 0.0 1017367
17:00−12wsw228993 0.0 1016411
20:00−18wsw229975 0.0 101520
2 march, tue
tue223:00−19wsw2210079 0.0 101440
02:00−20sw38100100 0.1 1012194
05:00−20wsw412100100 0.1 1009278
08:00−18sw41299100 0.0 1006354
11:00−16sw51194100 0.1 1004417
14:00−13sw51392100 0.3 1002548
17:00−11sw51192100 0.6 1000696
20:00−13sw51193100 0.2 999573
3 march, wed
wed323:00−15sw41095100 0.3 998422
02:00−15sw2997100 0.1 997332
05:00−15sw2697100 0.2 997200
08:00−15sw1197100 0.1 99523
11:00−10wsw1392100 0.3 995268
14:00−7w2491100 0.0 995447
17:00−6w3591100 0.1 995500
20:00−7wsw3795100 0.1 995316
4 march, thu
thu423:00−9wsw2797100 0.1 996205
02:00−10wsw3797100 0.1 995214
05:00−12w399796 0.1 995212
08:00−15w379778 0.0 996146
11:00−10w489189 0.2 997663
14:00−8wsw5885100 0.2 9971119
17:00−9wsw5886100 0.4 9971029
20:00−11wsw3109696 0.1 998506
5 march, fri
fri523:00−12sw3109698 0.3 997361
02:00−12s2996100 0.2 995378
05:00−10s21096100 0.6 992502
08:00−10se2997100 0.6 988412
11:00−6ese3596100 1.9 986330
14:00−4n1294100 2.1 986279
17:00−6w71392100 4.1 991945
20:00−9w61291100 0.9 997792